Regional Weather Roundup
Issued by NWS Sterling, VA

Home | Current Version | Previous Version | Text Only | Print | Product List | Glossary On
Versions: 1 2 3 4 5 6 7 8 9 10 11 12 13 14 15 16 17 18 19 20 21 22 23 24 25 26 27 28 29 30 31 32 33 34 35 36 37 38 39 40 41 42 43 44 45 46 47 48 49
000
ASUS41 KLWX 250010
RWRLWX

REGIONAL WEATHER ROUNDUP
NATIONAL WEATHER SERVICE BALTIMORE MD/WASHINGTON DC
700 PM EST WED DEC 24 2014

Note: "FAIR" indicates few or no clouds below 12,000 feet
with no significant weather and/or obstructions to visibility.
 TC=TEMPERATURE CELSIUS

 * =Non NWS site. Station does not report precipitation (e.g. rain,
    snow, etc.), thunder, or fog.

DCZ001-MDZ009-015-VAZ040>042-051-053>054-250100-
WASHINGTON METRO

CITY           SKY/WX    TMP DP  RH WIND       PRES   REMARKS
WASHINGTON NAT CLOUDY    50  47  89 SW6       29.64S FOG
DULLES         FOG       50  49  96 S8        29.61S VSB 1/4
FT BELVOIR     FOG       48  48 100 E1        29.62F VSB 3/4
QUANTICO       CLOUDY    49  48  97 S7        29.64F FOG
COLLEGE PARK*  CLOUDY    52  52 100 S5        29.63R
LEESBURG*      FOG       50  50 100 S7        29.60F VSB 3/4
MANASSAS*      CLOUDY    52  52 100 S5        29.61F
GAITHERSBURG*  CLOUDY    52  48  87 S5        29.64F

$$

MDZ006>007-011-014-250100-
BALTIMORE METRO

CITY           SKY/WX    TMP DP  RH WIND       PRES   REMARKS
BWI AIRPORT    LGT RAIN  52  52 100 S5        29.61F FOG
MD SCIENCE CTR   N/A     49  49 100 MISG      29.64R
MARTIN STATE   FOG       50  50 100 CALM      29.65R VSB 1/2
ANNAPOLIS      CLOUDY    50  49  96 S5        29.64R FOG
FORT MEADE*    CLOUDY    52  50  93 S6        29.65S

$$

MDZ012-015-019>023-250100-
MARYLAND EASTERN SHORE

CITY           SKY/WX    TMP DP  RH WIND       PRES   REMARKS
OCEAN CITY     FOG       53  53 100 S10G17    29.68R VSB 3/4
SALISBURY      CLOUDY    66  62  87 S10       29.67R
BAY BRIDGE AP*   N/A     55  55 100 S8        29.64F
CAMBRIDGE*     CLOUDY    59  55  88 S7        29.64F VSB 1/2
EASTON*        CLOUDY    59  59 100 SW6       29.67F

$$

MDZ017>025-250100-
SOUTHERN MARYLAND

CITY           SKY/WX    TMP DP  RH WIND       PRES   REMARKS
PATUXENT RIVER FOG       55  54  96 SW3       29.66R VSB 1/4
ST INIGOES     FOG       53  50  89 CALM      29.66R VSB 1/2
LEONARDTOWN*   CLOUDY    54  52  94 SW3       29.68R VSB 1/2

$$

MDZ003>005-250100-
NORTH CENTRAL MARYLAND

CITY           SKY/WX    TMP DP  RH WIND       PRES   REMARKS
FREDERICK*     FOG       50  46  87 CALM      29.63F VSB 1/2
HAGERSTOWN APT CLOUDY    48  47  96 S7        29.56F FOG
WESTMINSTER*   FOG       52  48  87 S6        29.61S VSB 3/4

$$

MDZ501>502-250100-
WESTERN MARYLAND

CITY           SKY/WX    TMP DP  RH WIND       PRES   REMARKS
OAKLAND*       CLOUDY    50 N/A N/A S14       29.49F
CUMBERLAND*    CLOUDY    41  41 100 CALM      29.60S VSB 1/2

$$

VAZ025>031-250100-
SHENANDOAH VALLEY

CITY           SKY/WX    TMP DP  RH WIND       PRES   REMARKS
WINCHESTER*    FOG       45  41  87 CALM      29.55F VSB 3/4
FRONT ROYAL*   CLOUDY    45  43  93 CALM      29.55F
LURAY*         CLOUDY    48  48 100 N3        29.55F
NEW MARKET*    CLOUDY    46  45  97 CALM      29.55S
STAUNTON*      CLOUDY    53  51  93 CALM      29.59F
WAYNESBORO*    CLOUDY    59  55  87 S15G26    29.59S

$$

WVZ021-048>050-054>055-250100-
EASTERN WEST VIRGINIA PANHANDLE

CITY           SKY/WX    TMP DP  RH WIND       PRES   REMARKS
MARTINSBURG    FOG       47  44  90 CALM      29.56F VSB 1/4
PETERSBURG*    CLOUDY    41  41 100 CALM      29.55F

$$

VAZ036>039-050-250100-
CENTRAL FOOTHILLS

CITY           SKY/WX    TMP DP  RH WIND       PRES   REMARKS
CHARLOTTESVILL FOG       50  49  96 S8        29.60F VSB 3/4
CULPEPER*      CLOUDY    52  52 100 CALM      29.62S
ORANGE*        CLOUDY    52  50  93 S3        29.63S
GORDONSVILLE*  CLOUDY    49  49  99 SW5       29.61F FOG
WARRENTON*     CLOUDY    53  53 100 S5        29.61F

$$

VAZ055>057-250100-
NORTH AND CENTRAL PIEDMONT

CITY           SKY/WX    TMP DP  RH WIND       PRES   REMARKS
FREDERICKSBRG* CLOUDY    53  53 100 W3        29.64F
STAFFORD*      CLOUDY    51  32  48 CALM      29.68F

$$

NCZ024-NYZ072-PAZ021-071-VAZ022-071-250100-
OTHER REGIONAL OBSERVATIONS

CITY           SKY/WX    TMP DP  RH WIND       PRES   REMARKS
NEW YORK CITY  CLOUDY    53  52  96 S6        29.64F FOG
PHILADELPHIA   CLOUDY    62  59  90 SW14      29.62F
PITTSBURGH     CLOUDY    57  52  83 SE8       29.36F
ROANOKE        CLOUDY    49  47  93 SE10      29.63F
RICHMOND       FOG       56  54  93 E3        29.64S VSB 1/4
RALEIGH        LGT RAIN  65  61  87 S9        29.67F

$$

ANZ530>537-250100-
MARINE OBSERVATIONS

STATION/POSITION TIME  TEMP    WIND        PRES
                       AIR SEA DIR/SP/G
                 (UTC) (F)     (DEG/KT/KT) (MB)
THOMAS PT LIGHT  0000   52 42  190/ 12/ 12 1004.7F
BALT KEY BRIDGE  0000   50     170/  4/  5 1003.5R
COVE POINT       0000   53     170/  5/  6 1004.3R
LEWISETTA        0000   53 42  290/  3/  5 1004.4R
SOLOMONS ISLAND  0000      44                N/A
PINEY POINT      0000          190/  1/  2   N/A

$$



USA.gov is the U.S. government's official web portal to all federal, state and local government web resources and services.